STARLINK-36066

Last updated on Wed Dec 31 2025 00:02:06 GMT+0000 (Coordinated Universal Time)

1 66592U 25270E 25364.36199032 -.00020389 00000+0 -48215-3 0 9993 2 66592 43.0014 91.1273 0002136 278.9267 81.1347 15.40696434 6965
UTC large
Height (km)
Speed (km/s)
/
Latitude / Longitude
Inclination (degrees)
Orbital Period (minutes)
Azimuth
Elevation
Range (km)
Doppler Factor

Next 0 passes for location: London (51.5072 / 0.1276)

Sorry there are no passes over London.